QPF
0.12 0.17 0.13 0.05 0.03 0.02 0.02 0.02 0.01 0.00 0.00 0.01 0.01 0.00 0.00 0.00 0.00 0.00 0.00 0.00 0.00 0.00 0.00 0.00 0.00 0.00 0.00 0.00 0.00 0.00 0.00 0.00 0.00 0.00 0.00 0.00 0.00 0.00 0.00 0.00 0.00 0.00 0.00 0.00
0.11 0.10 0.07 0.04 0.03 0.03 0.03 0.02 0.02 0.01 0.00 0.01 0.01 0.00 0.00 0.00 0.00 0.00 0.00 0.00 0.00 0.00 0.00 0.00 0.00 0.00 0.00 0.00 0.00 0.00 0.00 0.00 0.00 0.00 0.00 0.00 0.00 0.00 0.00 0.00 0.00 0.00 0.00 0.00
0.05 0.03 0.03 0.06 0.07 0.06 0.04 0.03 0.02 0.02 0.01 0.01 0.01 0.00 0.00 0.00 0.00 0.00 0.00 0.00 0.00 0.00 0.00 0.00 0.00 0.00 0.00 0.00 0.00 0.00 0.00 0.00 0.00 0.00 0.00 0.00 0.00 0.00 0.00 0.00 0.00 0.00 0.00 0.00
0.05 0.02 0.02 0.04 0.07 0.08 0.05 0.02 0.02 0.02 0.03 0.02 0.02 0.01 0.00 0.00 0.00 0.00 0.00 0.00 0.00 0.00 0.00 0.00 0.00 0.00 0.00 0.00 0.00 0.00 0.00 0.00 0.00 0.00 0.00 0.00 0.00 0.00 0.00 0.00 0.00 0.00 0.00 0.00
0.06 0.02 0.02 0.03 0.02 0.04 0.05 0.03 0.03 0.03 0.04 0.05 0.03 0.02 0.00 0.00 0.00 0.00 0.00 0.00 0.00 0.00 0.00 0.00 0.00 0.00 0.00 0.00 0.00 0.00 0.00 0.00 0.00 0.00 0.00 0.00 0.00 0.00 0.00 0.00 0.00 0.00 0.00 0.00
0.04 0.03 0.03 0.02 0.01 0.01 0.03 0.05 0.07 0.09 0.12 0.13 0.05 0.02 0.01 0.00 0.00 0.00 0.00 0.00 0.00 0.00 0.00 0.00 0.00 0.00 0.00 0.00 0.00 0.00 0.00 0.00 0.00 0.00 0.00 0.00 0.00 0.00 0.00 0.00 0.00 0.00 0.00 0.00
0.05 0.04 0.03 0.02 0.03 0.04 0.05 0.08 0.16 0.20 0.21 0.15 0.03 0.02 0.01 0.00 0.00 0.00 0.00 0.00 0.00 0.00 0.00 0.00 0.00 0.00 0.00 0.00 0.00 0.00 0.00 0.00 0.00 0.00 0.00 0.00 0.00 0.00 0.00 0.00 0.00 0.00 0.00 0.00
0.06 0.04 0.02 0.02 0.02 0.03 0.04 0.05 0.09 0.10 0.07 0.03 0.01 0.01 0.00 0.00 0.00 0.00 0.00 0.00 0.00 0.00 0.00 0.00 0.00 0.00 0.00 0.00 0.00 0.00 0.00 0.00 0.00 0.00 0.00 0.00 0.00 0.00 0.00 0.00 0.00 0.00 0.00 0.00
0.04 0.03 0.01 0.01 0.01 0.02 0.04 0.04 0.03 0.06 0.05 0.03 0.01 0.00 0.00 0.00 0.00 0.00 0.00 0.00 0.00 0.00 0.00 0.00 0.00 0.00 0.00 0.00 0.00 0.00 0.00 0.00 0.00 0.00 0.00 0.00 0.00 0.00 0.00 0.00 0.00 0.00 0.00 0.00
0.04 0.03 0.02 0.01 0.02 0.04 0.04 0.05 0.09 0.13 0.15 0.09 0.03 0.00 0.00 0.00 0.00 0.00 0.00 0.00 0.00 0.00 0.00 0.00 0.00 0.00 0.00 0.00 0.00 0.00 0.00 0.00 0.00 0.00 0.00 0.00 0.00 0.00 0.00 0.00 0.00 0.00 0.00 0.00
0.06 0.06 0.03 0.03 0.03 0.03 0.04 0.06 0.09 0.11 0.11 0.07 0.03 0.00 0.00 0.00 0.00 0.00 0.00 0.00 0.00 0.00 0.00 0.00 0.00 0.00 0.00 0.00 0.00 0.00 0.00 0.00 0.00 0.00 0.00 0.00 0.00 0.00 0.00 0.00 0.00 0.00 0.00 0.00
0.06 0.09 0.06 0.03 0.02 0.02 0.04 0.04 0.05 0.08 0.09 0.05 0.03 0.01 0.00 0.00 0.00 0.00 0.00 0.00 0.00 0.00 0.00 0.00 0.00 0.00 0.00 0.00 0.01 0.01 0.01 0.01 0.01 0.01 0.00 0.00 0.00 0.00 0.00 0.00 0.00 0.00 0.00 0.00
0.06 0.12 0.12 0.09 0.06 0.05 0.05 0.04 0.04 0.06 0.07 0.06 0.05 0.02 0.00 0.00 0.00 0.00 0.00 0.00 0.00 0.00 0.00 0.00 0.00 0.00 0.00 0.01 0.01 0.01 0.01 0.01 0.01 0.01 0.01 0.01 0.00 0.00 0.00 0.00 0.00 0.00 0.00 0.00
0.09 0.11 0.09 0.07 0.04 0.04 0.04 0.03 0.03 0.06 0.11 0.10 0.05 0.02 0.01 0.00 0.00 0.00 0.00 0.00 0.00 0.00 0.00 0.00 0.00 0.00 0.00 0.01 0.02 0.02 0.02 0.01 0.01 0.01 0.01 0.01 0.01 0.00 0.00 0.00 0.00 0.00 0.00 0.00
0.13 0.12 0.06 0.03 0.02 0.02 0.03 0.03 0.03 0.05 0.06 0.07 0.04 0.02 0.01 0.01 0.00 0.01 0.01 0.00 0.00 0.00 0.00 0.00 0.00 0.00 0.00 0.00 0.01 0.02 0.02 0.02 0.02 0.02 0.02 0.03 0.02 0.02 0.01 0.00 0.00 0.00 0.00 0.00
0.12 0.14 0.08 0.05 0.03 0.03 0.03 0.02 0.03 0.03 0.04 0.05 0.04 0.02 0.01 0.01 0.00 0.01 0.01 0.01 0.01 0.00 0.00 0.00 0.00 0.00 0.00 0.00 0.00 0.00 0.01 0.02 0.02 0.03 0.02 0.02 0.02 0.02 0.02 0.01 0.01 0.00 0.00 0.01
0.09 0.11 0.11 0.08 0.04 0.06 0.07 0.02 0.01 0.01 0.01 0.02 0.02 0.02 0.00 0.00 0.00 0.01 0.01 0.02 0.02 0.01 0.00 0.00 0.00 0.00 0.00 0.00 0.00 0.00 0.00 0.01 0.01 0.02 0.02 0.03 0.02 0.02 0.01 0.01 0.01 0.01 0.01 0.01
0.07 0.08 0.10 0.10 0.08 0.12 0.05 0.01 0.00 0.01 0.01 0.01 0.01 0.00 0.00 0.00 0.00 0.00 0.00 0.01 0.01 0.01 0.01 0.00 0.00 0.00 0.00 0.00 0.00 0.00 0.00 0.00 0.00 0.01 0.01 0.01 0.02 0.02 0.01 0.01 0.01 0.01 0.01 0.01
0.06 0.08 0.12 0.12 0.11 0.08 0.02 0.00 0.00 0.00 0.01 0.00 0.01 0.00 0.00 0.00 0.00 0.00 0.00 0.00 0.00 0.00 0.00 0.01 0.00 0.00 0.00 0.00 0.00 0.00 0.00 0.00 0.00 0.00 0.00 0.00 0.01 0.01 0.01 0.01 0.01 0.01 0.01 0.01
0.06 0.07 0.11 0.12 0.10 0.06 0.02 0.00 0.00 0.01 0.01 0.00 0.00 0.00 0.00 0.00 0.00 0.00 0.00 0.00 0.00 0.00 0.00 0.00 0.00 0.00 0.00 0.00 0.00 0.00 0.00 0.00 0.00 0.00 0.00 0.01 0.01 0.01 0.01 0.01 0.01 0.01 0.01 0.01
0.09 0.11 0.11 0.09 0.07 0.03 0.01 0.00 0.00 0.02 0.02 0.00 0.00 0.00 0.00 0.00 0.00 0.00 0.00 0.00 0.00 0.00 0.00 0.00 0.00 0.00 0.00 0.00 0.00 0.00 0.00 0.00 0.00 0.00 0.00 0.01 0.01 0.01 0.01 0.01 0.01 0.01 0.01 0.01
0.03 0.05 0.06 0.05 0.06 0.03 0.01 0.00 0.00 0.01 0.01 0.00 0.00 0.00 0.00 0.00 0.00 0.00 0.00 0.00 0.00 0.00 0.00 0.00 0.00 0.00 0.00 0.01 0.01 0.01 0.01 0.01 0.01 0.01 0.01 0.01 0.00 0.00 0.00 0.00 0.01 0.01 0.01 0.01
0.01 0.01 0.01 0.02 0.02 0.01 0.00 0.00 0.00 0.00 0.00 0.00 0.00 0.00 0.00 0.00 0.00 0.00 0.00 0.01 0.01 0.01 0.01 0.01 0.01 0.01 0.01 0.01 0.01 0.01 0.01 0.01 0.01 0.01 0.01 0.01 0.01 0.01 0.00 0.00 0.00 0.00 0.01 0.01
0.01 0.01 0.02 0.02 0.01 0.00 0.00 0.00 0.00 0.00 0.00 0.00 0.00 0.00 0.00 0.00 0.00 0.00 0.00 0.00 0.00 0.00 0.00 0.00 0.01 0.01 0.01 0.01 0.01 0.01 0.01 0.01 0.01 0.01 0.01 0.01 0.01 0.01 0.01 0.01 0.01 0.01 0.01 0.01
0.01 0.01 0.02 0.03 0.02 0.01 0.01 0.01 0.01 0.01 0.00 0.00 0.00 0.00 0.00 0.00 0.00 0.00 0.00 0.00 0.00 0.00 0.00 0.00 0.00 0.01 0.01 0.01 0.01 0.01 0.01 0.01 0.01 0.01 0.01 0.01 0.01 0.01 0.01 0.01 0.01 0.02 0.02 0.02
0.01 0.01 0.02 0.02 0.01 0.01 0.01 0.01 0.01 0.01 0.01 0.01 0.00 0.00 0.00 0.00 0.00 0.00 0.00 0.00 0.00 0.00 0.00 0.00 0.00 0.00 0.01 0.01 0.01 0.01 0.01 0.01 0.01 0.01 0.01 0.01 0.01 0.01 0.01 0.01 0.02 0.02 0.02 0.02
MSLP
1016.88 1017.01 1017.10 1017.16 1017.20 1017.23 1017.27 1017.32 1017.38 1017.44 1017.47 1017.47 1017.41 1017.30 1017.15 1016.95 1016.73 1016.51 1016.31 1016.14 1016.01 1015.93 1015.90 1015.92 1016.00 1016.14 1016.34 1016.59 1016.89 1017.23 1017.61 1018.01 1018.40 1018.79 1019.13 1019.44 1019.70 1019.91 1020.09 1020.25 1020.41 1020.58 1020.77 1021.01
1016.09 1016.10 1016.12 1016.15 1016.22 1016.34 1016.49 1016.67 1016.84 1016.99 1017.08 1017.08 1017.00 1016.83 1016.59 1016.30 1015.99 1015.70 1015.45 1015.25 1015.10 1015.01 1014.97 1014.99 1015.05 1015.17 1015.35 1015.60 1015.91 1016.29 1016.73 1017.20 1017.69 1018.16 1018.59 1018.97 1019.27 1019.51 1019.69 1019.84 1019.97 1020.11 1020.29 1020.51
1015.21 1015.13 1015.10 1015.14 1015.27 1015.49 1015.77 1016.07 1016.36 1016.57 1016.68 1016.65 1016.49 1016.21 1015.85 1015.45 1015.05 1014.69 1014.40 1014.18 1014.04 1013.97 1013.95 1013.97 1014.04 1014.15 1014.32 1014.55 1014.88 1015.28 1015.76 1016.29 1016.85 1017.40 1017.91 1018.36 1018.72 1018.99 1019.19 1019.33 1019.46 1019.60 1019.76 1019.98
1014.31 1014.16 1014.10 1014.17 1014.38 1014.70 1015.11 1015.53 1015.91 1016.16 1016.25 1016.16 1015.89 1015.48 1014.99 1014.46 1013.97 1013.55 1013.23 1013.03 1012.92 1012.89 1012.91 1012.97 1013.06 1013.18 1013.34 1013.58 1013.89 1014.30 1014.80 1015.36 1015.97 1016.57 1017.13 1017.63 1018.03 1018.33 1018.55 1018.71 1018.85 1018.98 1019.14 1019.35
1013.39 1013.19 1013.13 1013.24 1013.53 1013.97 1014.49 1015.02 1015.45 1015.72 1015.78 1015.61 1015.22 1014.68 1014.04 1013.40 1012.83 1012.37 1012.05 1011.88 1011.84 1011.88 1011.97 1012.09 1012.22 1012.37 1012.55 1012.77 1013.08 1013.48 1013.97 1014.53 1015.14 1015.76 1016.33 1016.84 1017.26 1017.58 1017.81 1017.98 1018.12 1018.25 1018.41 1018.61
1012.45 1012.23 1012.18 1012.34 1012.71 1013.24 1013.86 1014.46 1014.94 1015.21 1015.23 1014.97 1014.48 1013.82 1013.08 1012.35 1011.72 1011.25 1010.96 1010.85 1010.89 1011.02 1011.21 1011.42 1011.61 1011.81 1012.01 1012.24 1012.54 1012.91 1013.38 1013.91 1014.48 1015.07 1015.62 1016.10 1016.50 1016.81 1017.03 1017.20 1017.32 1017.45 1017.59 1017.76
1011.48 1011.25 1011.21 1011.42 1011.85 1012.46 1013.15 1013.81 1014.32 1014.59 1014.56 1014.25 1013.68 1012.95 1012.14 1011.37 1010.73 1010.28 1010.04 1010.01 1010.14 1010.38 1010.68 1010.98 1011.27 1011.52 1011.77 1012.02 1012.31 1012.67 1013.09 1013.57 1014.08 1014.60 1015.08 1015.51 1015.86 1016.12 1016.30 1016.43 1016.54 1016.63 1016.74 1016.88
1010.44 1010.21 1010.20 1010.44 1010.93 1011.59 1012.33 1013.03 1013.55 1013.82 1013.78 1013.44 1012.85 1012.09 1011.27 1010.51 1009.90 1009.51 1009.34 1009.40 1009.63 1009.98 1010.39 1010.79 1011.17 1011.50 1011.80 1012.09 1012.40 1012.74 1013.12 1013.54 1013.98 1014.41 1014.81 1015.15 1015.41 1015.60 1015.72 1015.79 1015.84 1015.89 1015.95 1016.03
1009.32 1009.10 1009.12 1009.40 1009.93 1010.62 1011.39 1012.10 1012.64 1012.92 1012.89 1012.56 1011.99 1011.27 1010.50 1009.80 1009.27 1008.95 1008.88 1009.03 1009.35 1009.80 1010.30 1010.80 1011.26 1011.67 1012.04 1012.39 1012.72 1013.07 1013.43 1013.81 1014.18 1014.52 1014.82 1015.05 1015.22 1015.31 1015.34 1015.34 1015.32 1015.30 1015.29 1015.31
1008.12 1007.95 1008.00 1008.32 1008.87 1009.58 1010.35 1011.07 1011.61 1011.90 1011.91 1011.63 1011.13 1010.50 1009.83 1009.24 1008.82 1008.61 1008.63 1008.86 1009.27 1009.78 1010.35 1010.93 1011.47 1011.96 1012.40 1012.81 1013.20 1013.57 1013.94 1014.29 1014.60 1014.88 1015.08 1015.22 1015.28 1015.26 1015.20 1015.11 1015.00 1014.90 1014.82 1014.75
1006.90 1006.78 1006.88 1007.23 1007.80 1008.51 1009.27 1009.97 1010.51 1010.82 1010.87 1010.67 1010.28 1009.77 1009.25 1008.81 1008.52 1008.42 1008.54 1008.85 1009.31 1009.87 1010.49 1011.11 1011.70 1012.26 1012.78 1013.26 1013.71 1014.14 1014.53 1014.88 1015.17 1015.39 1015.53 1015.58 1015.54 1015.44 1015.28 1015.10 1014.90 1014.72 1014.55 1014.40
1005.72 1005.67 1005.83 1006.21 1006.78 1007.47 1008.20 1008.87 1009.39 1009.70 1009.80 1009.68 1009.41 1009.06 1008.70 1008.43 1008.29 1008.32 1008.53 1008.90 1009.40 1009.99 1010.63 1011.27 1011.91 1012.52 1013.10 1013.65 1014.17 1014.66 1015.10 1015.47 1015.76 1015.96 1016.05 1016.04 1015.94 1015.75 1015.52 1015.25 1014.98 1014.71 1014.46 1014.22
1004.65 1004.67 1004.90 1005.31 1005.87 1006.52 1007.19 1007.79 1008.26 1008.56 1008.69 1008.65 1008.51 1008.31 1008.13 1008.03 1008.05 1008.21 1008.52 1008.95 1009.49 1010.09 1010.73 1011.39 1012.04 1012.69 1013.32 1013.94 1014.53 1015.08 1015.57 1015.98 1016.29 1016.48 1016.56 1016.51 1016.36 1016.13 1015.84 1015.51 1015.17 1014.83 1014.51 1014.19
1003.74 1003.85 1004.13 1004.55 1005.08 1005.66 1006.23 1006.74 1007.13 1007.40 1007.53 1007.55 1007.52 1007.47 1007.46 1007.53 1007.72 1008.02 1008.43 1008.94 1009.52 1010.14 1010.78 1011.44 1012.11 1012.78 1013.45 1014.11 1014.75 1015.36 1015.90 1016.35 1016.69 1016.90 1016.98 1016.93 1016.76 1016.51 1016.18 1015.82 1015.43 1015.04 1014.66 1014.27
1003.05 1003.23 1003.53 1003.94 1004.40 1004.88 1005.33 1005.71 1005.99 1006.18 1006.29 1006.35 1006.40 1006.49 1006.64 1006.89 1007.24 1007.69 1008.23 1008.82 1009.45 1010.11 1010.77 1011.44 1012.12 1012.81 1013.50 1014.19 1014.87 1015.51 1016.09 1016.57 1016.94 1017.18 1017.28 1017.24 1017.09 1016.84 1016.51 1016.13 1015.72 1015.30 1014.87 1014.42
1002.58 1002.79 1003.10 1003.45 1003.82 1004.16 1004.46 1004.67 1004.82 1004.91 1004.97 1005.04 1005.16 1005.36 1005.66 1006.08 1006.60 1007.21 1007.88 1008.59 1009.30 1010.01 1010.71 1011.41 1012.10 1012.80 1013.51 1014.21 1014.91 1015.57 1016.16 1016.67 1017.06 1017.33 1017.45 1017.45 1017.32 1017.10 1016.79 1016.42 1016.01 1015.57 1015.10 1014.61
1002.30 1002.52 1002.79 1003.06 1003.30 1003.48 1003.59 1003.64 1003.63 1003.60 1003.60 1003.66 1003.83 1004.13 1004.56 1005.14 1005.83 1006.60 1007.42 1008.25 1009.08 1009.87 1010.63 1011.36 1012.08 1012.79 1013.51 1014.21 1014.90 1015.56 1016.16 1016.67 1017.08 1017.37 1017.53 1017.56 1017.48 1017.29 1017.01 1016.67 1016.26 1015.81 1015.32 1014.78
1002.20 1002.38 1002.57 1002.72 1002.82 1002.83 1002.76 1002.63 1002.47 1002.33 1002.26 1002.31 1002.51 1002.89 1003.45 1004.17 1005.02 1005.95 1006.91 1007.88 1008.82 1009.71 1010.55 1011.33 1012.09 1012.81 1013.52 1014.22 1014.89 1015.53 1016.11 1016.62 1017.03 1017.34 1017.52 1017.59 1017.55 1017.41 1017.17 1016.84 1016.45 1015.99 1015.47 1014.89
1002.21 1002.33 1002.42 1002.44 1002.38 1002.23 1002.00 1001.71 1001.43 1001.19 1001.07 1001.11 1001.35 1001.80 1002.46 1003.30 1004.28 1005.35 1006.45 1007.55 1008.60 1009.59 1010.50 1011.35 1012.13 1012.87 1013.58 1014.25 1014.90 1015.51 1016.06 1016.55 1016.95 1017.26 1017.47 1017.57 1017.56 1017.45 1017.24 1016.93 1016.53 1016.05 1015.50 1014.87
1002.30 1002.34 1002.32 1002.22 1002.03 1001.74 1001.38 1000.99 1000.62 1000.33 1000.18 1000.23 1000.50 1001.01 1001.75 1002.68 1003.76 1004.93 1006.14 1007.34 1008.48 1009.55 1010.53 1011.42 1012.23 1012.98 1013.68 1014.33 1014.94 1015.51 1016.02 1016.48 1016.87 1017.17 1017.38 1017.49 1017.50 1017.41 1017.20 1016.89 1016.47 1015.95 1015.34 1014.66
1002.43 1002.38 1002.27 1002.08 1001.79 1001.42 1000.99 1000.54 1000.14 999.84 999.71 999.78 1000.09 1000.65 1001.43 1002.43 1003.57 1004.80 1006.07 1007.33 1008.53 1009.64 1010.66 1011.58 1012.41 1013.15 1013.83 1014.45 1015.02 1015.54 1016.02 1016.43 1016.79 1017.07 1017.26 1017.37 1017.37 1017.26 1017.04 1016.69 1016.23 1015.65 1014.97 1014.22
1002.56 1002.45 1002.28 1002.03 1001.70 1001.30 1000.86 1000.42 1000.05 999.79 999.71 999.83 1000.18 1000.78 1001.59 1002.60 1003.76 1005.00 1006.28 1007.55 1008.76 1009.89 1010.92 1011.84 1012.66 1013.40 1014.05 1014.63 1015.16 1015.63 1016.05 1016.42 1016.73 1016.97 1017.13 1017.20 1017.17 1017.02 1016.74 1016.33 1015.79 1015.14 1014.38 1013.54
1002.70 1002.55 1002.34 1002.08 1001.75 1001.39 1001.00 1000.64 1000.35 1000.18 1000.18 1000.36 1000.77 1001.39 1002.21 1003.21 1004.33 1005.54 1006.79 1008.02 1009.20 1010.30 1011.31 1012.21 1013.01 1013.71 1014.33 1014.87 1015.35 1015.77 1016.14 1016.45 1016.70 1016.89 1016.99 1017.00 1016.91 1016.68 1016.33 1015.83 1015.20 1014.45 1013.59 1012.66
1002.82 1002.65 1002.45 1002.22 1001.95 1001.66 1001.38 1001.14 1000.98 1000.93 1001.03 1001.30 1001.75 1002.39 1003.20 1004.16 1005.22 1006.36 1007.53 1008.69 1009.81 1010.85 1011.81 1012.68 1013.44 1014.11 1014.68 1015.18 1015.61 1015.98 1016.28 1016.53 1016.72 1016.83 1016.86 1016.79 1016.61 1016.30 1015.84 1015.24 1014.51 1013.65 1012.70 1011.68
1002.93 1002.77 1002.60 1002.42 1002.24 1002.08 1001.93 1001.85 1001.84 1001.93 1002.14 1002.49 1002.99 1003.64 1004.43 1005.33 1006.32 1007.37 1008.44 1009.51 1010.54 1011.52 1012.41 1013.22 1013.94 1014.56 1015.10 1015.55 1015.93 1016.24 1016.48 1016.66 1016.77 1016.81 1016.75 1016.59 1016.31 1015.89 1015.33 1014.63 1013.80 1012.84 1011.81 1010.72
1003.06 1002.91 1002.79 1002.68 1002.61 1002.57 1002.58 1002.65 1002.79 1003.02 1003.35 1003.79 1004.34 1004.99 1005.74 1006.59 1007.49 1008.45 1009.42 1010.39 1011.33 1012.23 1013.06 1013.80 1014.47 1015.05 1015.54 1015.94 1016.27 1016.52 1016.71 1016.82 1016.85 1016.80 1016.66 1016.41 1016.03 1015.52 1014.87 1014.07 1013.15 1012.13 1011.03 1009.88
Thickness
5560 5562 5574 5586 5590 5594 5593 5594 5598 5609 5620 5619 5621 5630 5642 5653 5655 5659 5665 5670 5676 5684 5694 5698 5701 5703 5704 5705 5704 5704 5703 5701 5697 5694 5692 5690 5689 5689 5687 5686 5684 5682 5679 5676
5547 5560 5580 5581 5581 5580 5582 5584 5589 5598 5607 5608 5610 5620 5634 5645 5652 5658 5663 5668 5673 5680 5687 5692 5696 5699 5700 5702 5702 5702 5701 5700 5698 5696 5694 5691 5689 5688 5687 5685 5682 5680 5678 5676
5548 5568 5571 5567 5568 5570 5574 5579 5582 5584 5591 5595 5595 5604 5622 5638 5647 5655 5661 5667 5672 5676 5682 5687 5691 5694 5695 5697 5699 5700 5699 5698 5696 5694 5690 5686 5683 5682 5682 5681 5681 5680 5677 5675
5536 5553 5557 5557 5562 5567 5571 5579 5576 5574 5571 5573 5580 5584 5613 5628 5638 5649 5657 5663 5669 5674 5679 5683 5687 5689 5691 5694 5696 5696 5696 5695 5694 5690 5686 5684 5682 5683 5685 5684 5681 5679 5676 5673
5531 5542 5545 5551 5564 5565 5566 5572 5568 5565 5562 5561 5568 5569 5597 5618 5629 5645 5654 5660 5665 5671 5674 5678 5682 5685 5688 5690 5690 5691 5691 5690 5689 5686 5684 5681 5680 5682 5681 5678 5676 5675 5673 5671
5523 5533 5539 5549 5558 5557 5557 5555 5554 5552 5547 5551 5570 5561 5587 5609 5629 5641 5649 5655 5660 5665 5668 5672 5676 5678 5681 5683 5683 5683 5683 5683 5683 5681 5679 5677 5677 5676 5673 5672 5671 5670 5669 5668
5506 5515 5528 5540 5539 5541 5543 5540 5534 5534 5536 5549 5567 5561 5589 5615 5630 5638 5644 5649 5654 5657 5659 5662 5664 5667 5669 5671 5673 5674 5674 5674 5674 5673 5672 5672 5671 5670 5669 5668 5667 5665 5665 5664
5499 5506 5521 5530 5538 5540 5542 5541 5535 5531 5534 5540 5548 5560 5593 5612 5622 5630 5636 5640 5642 5645 5648 5651 5654 5656 5658 5660 5661 5662 5663 5664 5664 5663 5663 5664 5663 5662 5662 5662 5662 5661 5661 5662
5499 5508 5523 5529 5538 5537 5531 5533 5542 5530 5524 5526 5534 5554 5580 5601 5608 5615 5621 5625 5627 5631 5635 5638 5641 5643 5645 5647 5648 5649 5651 5651 5652 5652 5653 5653 5654 5654 5655 5655 5655 5655 5655 5655
5496 5497 5511 5520 5522 5527 5532 5531 5523 5519 5521 5523 5533 5545 5569 5591 5598 5603 5607 5611 5616 5619 5622 5624 5626 5627 5629 5631 5633 5635 5637 5638 5639 5639 5639 5641 5642 5643 5645 5645 5645 5646 5647 5647
5487 5487 5496 5504 5510 5520 5518 5518 5520 5518 5516 5520 5522 5545 5577 5586 5593 5596 5599 5601 5604 5605 5606 5607 5609 5611 5612 5614 5616 5618 5621 5622 5623 5624 5625 5626 5628 5630 5632 5633 5635 5636 5637 5637
5481 5480 5483 5496 5512 5520 5519 5522 5521 5514 5510 5514 5523 5544 5578 5579 5581 5583 5585 5587 5588 5589 5589 5590 5592 5594 5595 5597 5599 5601 5603 5605 5607 5608 5610 5611 5613 5615 5617 5620 5623 5624 5625 5626
5476 5470 5473 5478 5486 5496 5502 5512 5517 5517 5510 5506 5512 5538 5568 5566 5567 5569 5571 5571 5571 5572 5572 5573 5574 5576 5578 5579 5581 5583 5585 5587 5589 5591 5593 5594 5596 5599 5602 5605 5608 5611 5612 5614
5474 5463 5470 5482 5491 5494 5496 5503 5507 5504 5502 5506 5515 5534 5552 5553 5555 5555 5554 5555 5554 5555 5556 5556 5557 5558 5559 5560 5562 5564 5566 5569 5571 5573 5575 5576 5579 5582 5585 5589 5592 5595 5598 5600
5462 5455 5462 5473 5481 5483 5487 5492 5495 5498 5503 5502 5513 5522 5541 5545 5545 5544 5541 5539 5540 5540 5540 5541 5541 5541 5542 5543 5545 5547 5549 5551 5553 5556 5558 5560 5562 5565 5569 5573 5576 5579 5583 5586
5452 5448 5451 5456 5467 5471 5472 5481 5488 5494 5499 5501 5506 5515 5532 5534 5531 5528 5527 5527 5527 5526 5525 5525 5525 5526 5527 5528 5530 5532 5533 5535 5536 5539 5541 5542 5544 5547 5552 5556 5560 5564 5568 5571
5442 5440 5441 5446 5454 5452 5455 5478 5486 5491 5497 5500 5503 5519 5521 5517 5518 5518 5516 5514 5512 5511 5510 5510 5510 5510 5510 5512 5514 5515 5517 5517 5519 5521 5523 5525 5527 5531 5534 5537 5542 5547 5551 5555
5436 5434 5431 5429 5431 5439 5470 5487 5487 5488 5494 5497 5499 5506 5508 5509 5504 5499 5499 5497 5496 5494 5493 5493 5493 5493 5493 5495 5496 5498 5499 5500 5501 5503 5506 5507 5510 5513 5516 5520 5525 5529 5533 5538
5436 5430 5420 5420 5425 5430 5452 5467 5476 5476 5480 5487 5488 5491 5488 5485 5480 5477 5479 5480 5479 5477 5476 5475 5474 5475 5475 5475 5476 5478 5479 5481 5483 5485 5487 5489 5491 5495 5499 5503 5507 5511 5515 5520
5426 5425 5415 5410 5414 5418 5459 5468 5470 5467 5463 5477 5478 5477 5471 5470 5472 5477 5467 5461 5459 5457 5456 5455 5455 5455 5455 5455 5456 5457 5459 5462 5464 5466 5468 5470 5473 5477 5480 5485 5489 5493 5496 5502
5415 5414 5413 5409 5410 5421 5450 5453 5456 5447 5461 5465 5463 5463 5460 5461 5465 5459 5448 5443 5440 5439 5438 5437 5437 5436 5436 5436 5437 5439 5440 5442 5444 5447 5450 5453 5456 5459 5463 5467 5470 5474 5478 5483
5414 5409 5407 5404 5405 5421 5439 5439 5444 5447 5445 5443 5444 5444 5442 5437 5434 5430 5428 5425 5421 5419 5418 5418 5418 5416 5416 5416 5418 5420 5422 5423 5425 5428 5431 5435 5438 5441 5445 5448 5451 5454 5458 5463
5409 5415 5412 5416 5422 5420 5417 5423 5422 5423 5424 5424 5424 5425 5423 5417 5412 5411 5409 5407 5404 5402 5399 5398 5398 5397 5398 5398 5399 5400 5402 5404 5406 5409 5412 5416 5421 5423 5426 5428 5432 5435 5438 5442
5393 5398 5399 5398 5401 5398 5396 5397 5398 5400 5402 5403 5404 5404 5403 5400 5396 5393 5391 5388 5386 5383 5380 5378 5378 5378 5378 5378 5379 5379 5382 5384 5386 5390 5394 5399 5402 5406 5408 5410 5413 5416 5419 5422
5381 5383 5385 5387 5383 5379 5381 5380 5380 5380 5381 5381 5381 5382 5382 5382 5379 5375 5372 5368 5366 5364 5361 5360 5359 5359 5359 5359 5360 5361 5363 5364 5367 5371 5375 5379 5382 5385 5389 5392 5394 5397 5400 5401
5360 5367 5375 5382 5376 5376 5375 5367 5365 5364 5363 5362 5362 5361 5360 5361 5359 5355 5351 5348 5345 5344 5343 5341 5340 5340 5340 5340 5341 5343 5344 5345 5348 5352 5355 5358 5361 5364 5368 5373 5378 5381 5383 5386